User: anonymous   Login
Location: Bishop's University Astronomical Observatory
(45.3661°N, 71.8475°W)
Time: 17:46:50
(UTC-04:00)
Language:

Meteor 2-5 Rocket - Orbit

View from above orbital plane
View from above orbital plane
View from above satellite
View from above satellite

Ground track
Ground track

The orbit data is extracted from the following two-line orbital elements,

1 11608U 79095B   15114.93044770  .00000167  00000-0  92920-4 0  9992
2 11608 081.2137 252.0077 0054347 204.4787 155.3801 14.06061859819863
Epoch (UTC): 24 April 2015 22:19:50
Eccentricity: 0.0054347
inclination: 81.2137°
perigee height: 833 km
apogee height: 912 km
right ascension of ascending node: 252.0077°
argument of perigee: 204.4787°
revolutions per day: 14.06061859
mean anomaly at epoch: 155.3801°
orbit number at epoch: 81986

The dashed part of the orbit path shows where the satellite is in the earth's shadow,  

DLR